TimePDT,TemperatureF,Dew PointF,Humidity,Sea Level PressureIn,VisibilityMPH,Wind Direction,Wind SpeedMPH,Gust SpeedMPH,PrecipitationIn,Events,Conditions,WindDirDegrees,DateUTC
12:53 AM,55.9,43.0,62,30.12,10.0,WNW,11.5,-,N/A,,Clear,290,2013-06-13 07:53:00
1:53 AM,54.0,43.0,66,30.12,10.0,West,9.2,-,N/A,,Clear,280,2013-06-13 08:53:00
2:53 AM,53.1,44.1,71,30.12,10.0,West,8.1,-,N/A,,Clear,280,2013-06-13 09:53:00
3:53 AM,53.1,44.1,71,30.12,10.0,West,6.9,-,N/A,,Partly Cloudy,270,2013-06-13 10:53:00
4:53 AM,54.0,44.1,69,30.12,10.0,West,10.4,-,N/A,,Clear,270,2013-06-13 11:53:00
5:53 AM,54.0,45.0,72,30.13,10.0,West,8.1,-,N/A,,Partly Cloudy,280,2013-06-13 12:53:00
6:53 AM,55.9,46.9,72,30.14,10.0,WNW,12.7,-,0.00,Rain,Light Rain,290,2013-06-13 13:53:00
7:53 AM,54.0,46.0,75,30.15,10.0,West,11.5,-,0.00,Rain,Light Rain,280,2013-06-13 14:53:00
8:53 AM,54.0,48.0,80,30.16,10.0,NNW,12.7,-,0.01,,Overcast,330,2013-06-13 15:53:00
9:53 AM,55.9,46.9,72,30.16,10.0,NW,11.5,-,N/A,,Overcast,320,2013-06-13 16:53:00
10:53 AM,62.1,48.0,60,30.14,10.0,NW,15.0,-,N/A,,Overcast,320,2013-06-13 17:53:00
11:53 AM,64.9,46.0,50,30.13,10.0,NW,20.7,26.5,N/A,,Clear,320,2013-06-13 18:53:00
12:53 PM,69.1,44.1,40,30.13,10.0,NW,23.0,26.5,N/A,,Clear,310,2013-06-13 19:53:00
1:53 PM,69.1,43.0,39,30.12,10.0,NW,21.9,28.8,N/A,,Clear,310,2013-06-13 20:53:00
2:53 PM,71.1,42.1,35,30.12,10.0,NW,19.6,31.1,N/A,,Clear,310,2013-06-13 21:53:00
3:53 PM,69.1,41.0,36,30.13,10.0,WNW,23.0,34.5,N/A,,Clear,300,2013-06-13 22:53:00
4:53 PM,68.0,42.1,39,30.14,10.0,WNW,27.6,36.8,N/A,,Clear,290,2013-06-13 23:53:00
5:53 PM,66.9,43.0,42,30.15,10.0,West,15.0,28.8,N/A,,Scattered Clouds,280,2013-06-14 00:53:00
6:53 PM,64.9,43.0,45,30.16,10.0,West,16.1,25.3,N/A,,Partly Cloudy,270,2013-06-14 01:53:00
7:53 PM,63.0,43.0,48,30.17,10.0,West,13.8,25.3,N/A,,Clear,280,2013-06-14 02:53:00
8:53 PM,61.0,43.0,52,30.18,10.0,West,11.5,-,N/A,,Clear,280,2013-06-14 03:53:00
9:53 PM,57.9,44.1,60,30.19,10.0,North,3.5,-,N/A,,Clear,10,2013-06-14 04:53:00
10:53 PM,57.0,45.0,64,30.21,10.0,WNW,6.9,-,N/A,,Clear,290,2013-06-14 05:53:00
11:53 PM,57.9,45.0,62,30.21,10.0,West,4.6,-,N/A,,Mostly Cloudy,280,2013-06-14 06:53:00